Location: Sungai Liu
(2.3667°N, 113.8667°E)
Time: 06:45:30
(UTC+00:00)

BREEZE-M R/B - Visible Passes

Search period start: 06 October 2022 00:00
Search period end: 16 October 2022 00:00
Orbit: 269 x 22906 km, 49.1° (Epoch: 05 October)

Date Brightness Start Highest point End Pass type
(mag) Time Alt. Az. Time Alt. Az. Time Alt. Az.
06 Oct 8.3 18:58:44 38° NNW 19:25:58 88° ENE 00:07:17 10° SSE visible
07 Oct 9.0 21:41:45 10° WNW 22:39:05 40° WSW 03:20:36 10° SE visible
08 Oct 8.4 17:36:15 48° NNE 17:52:42 60° ENE 22:19:34 10° SSE visible
09 Oct 8.6 20:14:41 26° WNW 20:54:59 62° WSW 01:40:44 10° SSE visible
10 Oct 8.8 16:13:25 32° NE 16:25:00 34° ENE 20:17:30 10° SE visible
11 Oct 8.4 18:51:38 54° NW 19:13:11 87° WSW 23:56:48 10° SSE visible
12 Oct 9.4 14:50:12 11° ENE 14:56:59 11° ENE 15:47:06 10° ESE visible
12 Oct 9.0 21:30:26 10° WNW 22:27:50 36° WSW 03:09:57 10° SE visible
13 Oct 8.5 17:28:11 60° NE 17:37:53 65° ENE 22:07:11 10° SSE visible
14 Oct 8.7 20:06:02 35° WNW 20:41:42 58° WSW 01:29:22 10° SE visible
15 Oct 9.0 16:04:18 37° ENE 16:08:33 37° ENE 20:03:48 10° SE visible
